Location: Skalnate Pleso
(49.1889°N, 20.2450°E)
Time: 16:55:17
(UTC+01:00)

Cosmos 1825 - Pass Details

Date: 19 November 2019
Orbit: 504 x 508 km, 82.5° (Epoch: 07 December)

Event Time Altitude Azimuth Distance (km) Brightness Sun altitude
Rises 04:40:39 0° 174° (S) 2,593 5.9 -21.6°
Reaches altitude 10° 04:42:48 10° 169° (SSE) 1,714 5.0 -21.2°
Maximum altitude 04:46:25 47° 94° (E) 677 3.2 -20.6°
Drops below altitude 10° 04:50:04 10° 20° (NNE) 1,729 5.0 -20.0°
Sets 04:52:14 0° 15° (NNE) 2,620 5.9 -19.7°
